Location: Hammersmith
(51.5000°N, 0.2333°W)
Time: 06:42:06
(UTC+00:00)

Daily predictions for brighter satellites

Satellite Brightness Start Highest point End
(mag) Time Altitude Azimuth Time Altitude Azimuth Time Altitude Azimuth
FengYun 1-2 T 4.4 16:57:36 10° SE 17:03:00 55° ENE 17:08:29 10° N
Tsikada Rocket 4.0 16:57:43 10° S 17:04:00 72° E 17:10:14 10° NNE
NOAA 12 4.1 16:59:39 10° SSE 17:04:52 73° ENE 17:10:06 10° NNW
SL-14 R/B 3.9 17:02:12 10° SSE 17:05:47 36° E 17:09:24 10° NNE
ATLAS 3B R/B 3.4 16:59:34 10° NW 17:06:25 64° SW 17:13:31 10° SSE
RESURS DK-1 2.5 17:02:40 10° SSW 17:06:44 58° ESE 17:10:49 10° NE
Cosmos 2228 3.3 17:03:07 10° N 17:07:12 43° ENE 17:11:17 10° SE
Cosmos 1400 Rocket 3.5 17:03:28 10° NNW 17:07:34 61° W 17:11:34 10° S
Cosmos 1538 Rocket 4.4 17:08:26 10° NNW 17:13:20 40° NE 17:18:11 10° SE
CZ-4C R/B 2.3 17:09:03 10° SW 17:14:11 79° NW 17:20:30 10° NE
Meteor 2-5 Rocket 3.9 17:09:20 10° S 17:14:41 50° E 17:20:02 10° NNE
CZ-3B R/B 1.3 17:13:14 10° WNW 17:15:11 47° NNE 17:18:48 10° E
SJ 16-02 3.3 17:17:01 10° E 17:17:41 10° E 17:18:22 10° E
CORIOLIS 4.2 17:16:13 10° SSE 17:21:38 83° ENE 17:27:02 10° NNW
Cosmos 2263 Rocket 2.3 17:16:33 10° SSW 17:22:09 63° ESE 17:27:45 10° NE
Cosmos 1455 3.6 17:21:50 10° NNE 17:24:29 18° ENE 17:27:08 10° ESE
Cosmos 968 Rocket 3.8 17:19:44 10° SW 17:24:49 67° WNW 17:29:57 10° NNE
Envisat 4.3 17:20:08 10° S 17:25:01 46° W 17:29:56 10° NNW
Cosmos 2058 Rocket 3.8 17:22:28 10° N 17:26:34 33° ENE 17:30:40 10° SE
Cosmos 1354 Rocket 4.1 17:21:33 10° S 17:26:49 67° ESE 17:32:08 10° NNE
NOAA 11 4.2 17:21:35 10° SSE 17:27:05 83° ENE 17:32:38 10° NNW
USA-17 4.3 17:24:38 10° SW 17:28:12 74° SE 17:30:58 12° NE
Cosmos 1300 2.6 17:25:11 10° N 17:29:01 77° E 17:32:51 10° SSE
NOSS 7 (H) 4.0 17:29:52 10° SW 17:33:05 87° SE 17:35:34 14° NE
Landsat 5 3.4 17:30:08 10° NNE 17:34:08 82° WNW 17:38:00 10° SSW
GENESIS II 4.4 17:32:04 10° SSW 17:36:01 61° SE 17:39:28 13° NE
ADEOS Rocket 4.1 17:32:10 10° N 17:37:58 42° WNW 17:43:17 10° SW
ARGOS 4.1 17:35:05 10° ESE 17:39:23 25° ENE 17:43:44 10° N
NOSS 3-1 (C) 4.3 17:32:49 10° NW 17:39:25 45° NNE 17:47:11 10° E
Lacrosse 5 1.8 17:34:24 10° WNW 17:39:28 74° NNE 17:44:31 10° ESE
CREW DRAGON DEMO-1 DEB 2.6 17:36:47 10° W 17:39:41 88° S 17:41:52 16° E
Cosmos 1943 4.0 17:35:51 10° NW 17:41:26 57° WSW 17:46:56 10° S
Cosmos 1726 Rocket 3.5 17:37:54 10° N 17:42:16 68° ENE 17:46:38 10° SSE
ERS-2 3.5 17:42:03 16° ENE 17:43:30 20° E 17:46:15 10° SE
ISS -1.3 17:43:04 10° SSE 17:43:56 11° SE 17:44:47 10° ESE
CZ-2C R/B 4.4 17:45:49 12° E 17:45:49 12° E 17:47:11 10° ESE
Cosmos 1939 Rocket 2.8 17:42:02 10° SSE 17:46:08 75° ENE 17:50:14 10° N
Meteor 1-24 Rocket 3.5 17:43:27 10° S 17:48:45 73° E 17:54:04 10° NNE
COSMOS 2455 3.4 17:43:57 10° S 17:49:29 40° ESE 17:54:02 15° NE
Cosmos 1833 Rocket 4.0 17:48:22 10° NNW 17:52:36 21° NE 17:54:41 17° ENE
Cosmos 2082 Rocket 3.8 17:50:36 10° NNW 17:54:11 17° NNE 17:55:56 15° NE
Cosmos 1315 Rocket 3.7 17:50:56 10° NNW 17:54:49 53° W 17:58:43 10° S
USA 229 DEB 4.3 17:49:39 10° NW 17:56:22 43° NNE 18:01:49 17° E
USA 229 4.3 17:49:45 10° NW 17:56:27 43° NNE 18:01:52 17° E
IRS-1C Rocket 4.1 17:51:53 10° SSE 17:57:04 63° ENE 18:02:17 10° N
CZ-4 R/B 1.7 17:54:35 10° SE 17:58:29 43° ENE 18:02:19 10° N
Feng Yun 1-1 Rocket 4.2 17:54:21 10° SSE 17:59:46 85° ENE 18:05:22 10° NNW
COSMO-SKYMED 1 2.7 17:56:52 10° NNE 18:01:09 52° E 18:05:23 10° S
NOSS 3-4 (A) 4.2 17:55:52 10° WSW 18:01:37 45° NNW 18:07:06 14° NE
NOSS 3-4 (C) 4.2 17:56:01 10° WSW 18:01:46 45° NNW 18:07:15 14° NE
Cosmos 2279 Rocket 4.1 17:55:43 10° NNW 18:02:01 80° W 18:08:16 10° S
Cosmos 2227 4.4 18:00:50 10° SW 18:06:28 71° WNW 18:12:11 10° NNE
Cosmos 2227 Rocket 4.2 18:05:49 10° W 18:10:04 21° NW 18:14:20 10° NNE
CZ-4B R/B 1.2 18:08:14 12° NNE 18:11:22 76° ESE 18:14:42 10° S
CZ-4 R/B 4.3 18:07:46 10° SSE 18:11:55 84° ENE 18:16:05 10° NNW
NOSS 3-1 (A) 4.3 18:05:20 10° NW 18:11:57 45° NNE 18:16:57 22° E
Okean-O 2.6 18:10:16 10° SSE 18:14:37 59° ENE 18:19:00 10° N
CSL-04 DEB 4.5 18:10:49 10° NNE 18:15:05 85° WNW 18:19:13 10° SSW
Cosmos 923 Rocket 4.1 18:09:50 10° NNW 18:15:08 57° ENE 18:20:22 10° SE
CZ-2C R/B 3.2 18:10:50 10° SSE 18:16:09 89° E 18:21:50 10° NNW
Cosmos 1844 Rocket 3.1 18:11:24 10° S 18:16:38 40° ESE 18:19:24 24° ENE
Okean O Rocket 3.5 18:13:39 10° SSW 18:17:43 34° W 18:21:46 10° NNW
Cosmos 1689 Rocket 4.2 18:20:00 14° SSE 18:20:00 14° SSE 18:20:38 10° SSE
Cosmos 1626 4.2 18:15:19 10° SW 18:18:31 27° WNW 18:21:46 10° N
H-2A R/B 2.0 18:13:43 10° SSE 18:18:37 60° ENE 18:23:40 10° N
SeaSat 1 4.5 18:15:08 10° N 18:18:50 21° NW 18:22:30 10° W
ATLAS 2AS CENTAUR R/B 3.6 18:11:34 10° WSW 18:19:18 52° NNW 18:25:31 16° NE
Meteor 1-21 Rocket 4.5 18:14:33 10° SSE 18:19:42 42° E 18:24:54 10° NNE
Aureole 2 Rocket 2.8 18:17:06 10° S 18:19:29 35° SE 18:19:29 35° SE
Cosmos 158 Rocket 4.0 18:15:15 10° NNW 18:20:34 67° ENE 18:25:56 10° SE
Cosmos 1680 Rocket 3.6 18:17:22 10° NNW 18:22:31 51° ENE 18:26:36 16° SE
SKYMED 3 4.5 18:20:48 10° NNE 18:25:11 88° ESE 18:29:32 10° SSW
SAR-Lupe-4 3.6 18:31:27 51° E 18:31:29 51° ESE 18:34:58 10° S
Meteor 2-10 Rocket 4.0 18:26:30 10° NNW 18:32:03 67° W 18:37:19 10° S
CZ-2D R/B 4.1 18:28:25 10° S 18:32:12 52° W 18:35:59 10° NNW
Cosmos 1818 3.9 18:28:06 10° SSW 18:33:15 46° ESE 18:34:52 35° ENE
H-2A R/B 3.6 18:29:24 10° N 18:33:30 36° WNW 18:37:31 10° SW
Cosmos 489 Rocket 4.5 18:27:48 10° NNW 18:34:14 89° WSW 18:40:35 10° SSE
Cosmos 2297 Rocket 4.4 18:31:46 10° WNW 18:35:02 15° NNW 18:38:19 10° N
YAOGAN 1 2.5 18:32:13 10° SSE 18:36:33 88° E 18:40:55 10° NNW
Cosmos 1892 Rocket 4.0 18:33:43 10° SSW 18:38:01 62° WNW 18:42:21 10° N
CSL-04 Rocket 3.6 18:35:08 10° SSE 18:40:29 65° ENE 18:45:56 10° N
Helios 1A Rocket 2.8 18:37:18 10° SSE 18:41:27 83° ENE 18:45:38 10° NNW
SAR-Lupe-1 4.0 18:42:35 65° SE 18:42:35 65° SE 18:45:56 10° S
APEX 4.5 18:35:41 10° SSW 18:42:40 76° ESE 18:46:31 25° NE
USA 234 3.3 18:40:20 32° E 18:43:27 65° NNE 18:49:56 10° WNW
Aureole 1 4.4 18:40:36 10° NNW 18:43:40 65° WSW 18:44:09 54° SSW
RESURS DK-1 4.4 18:41:43 10° W 18:45:06 24° NW 18:47:47 13° N
Iridium 4 Rocket 3.7 18:39:34 10° N 18:45:16 57° E 18:50:33 10° SSE
MOS 1 Rocket 3.1 18:41:03 10° N 18:45:25 77° WNW 18:49:41 10° SSW
ATLAS 5 CENTAUR R/B 2.4 18:41:36 10° WSW 18:45:37 44° NNW 18:47:37 28° NNE
Meteor 2-1 Rocket 4.3 18:40:50 10° NNW 18:46:27 78° W 18:51:57 10° S
Cosmos 1092 Rocket 3.9 18:40:44 10° S 18:46:46 57° E 18:52:47 10° NNE
Cosmos 1812 Rocket 3.5 18:43:56 10° N 18:48:20 61° ENE 18:48:54 55° ESE
SKYMED 2 4.2 18:44:55 10° N 18:49:11 56° WNW 18:53:26 10° SSW
Cosmos 2344 4.2 18:42:55 10° NW 18:51:40 71° NE 18:59:36 24° ESE
SJ 16-02 1.2 18:51:02 10° SSW 18:55:27 78° ESE 18:55:59 66° NE
SJ-11-01 4.4 18:51:02 10° S 18:55:44 75° WSW 19:00:26 10° NNW
Aureole 3 3.7 18:52:30 10° NNW 18:56:07 52° W 18:59:11 10° S
Cosmos 2112 Rocket 3.8 18:54:46 10° NNW 19:00:04 82° ENE 19:02:18 35° SSE
Cosmos 1455 3.1 18:56:41 10° NNW 19:00:22 48° W 19:04:03 10° S
CZ-4C R/B 3.6 18:58:35 10° W 19:03:40 33° NNW 19:06:29 24° NNE
MetOp-A 4.4 19:04:29 46° NE 19:04:29 46° NE 19:08:53 10° N
Nadezhda 4 Rocket 4.2 18:57:56 10° SSW 19:04:10 73° WNW 19:10:23 10° N
Cosmos 2263 Rocket 3.7 19:01:26 10° WSW 19:06:29 32° NW 19:10:38 14° NNE
X-37B 3.4 19:04:52 10° SSW 19:05:31 13° SSW 19:05:31 13° SSW
COSMOS 2406 3.2 19:09:04 10° NNW 19:14:49 61° NE 19:14:49 61° NE
ERS-2 3.4 19:16:37 36° NW 19:17:11 39° WNW 19:20:36 10° SW
ARGOS 3.5 19:13:57 10° S 19:19:15 65° WSW 19:24:38 10° NNW
ISS -1.3 19:16:50 10° SW 19:17:58 19° SW 19:17:58 19° SW
Lacrosse 5 3.2 19:17:37 10° WNW 19:22:12 35° SW 19:24:15 25° S
CZ-2C R/B 3.1 19:27:19 51° S 19:27:19 51° S 19:31:32 10° S
Cosmos 1626 Rocket 4.3 19:26:29 10° SSW 19:30:46 52° WNW 19:31:13 49° NW
NOSS 3-1 (C) 4.0 19:23:38 10° NW 19:30:58 79° SW 19:34:39 37° SSE
CZ-4 R/B 3.8 19:30:27 10° SW 19:33:41 22° W 19:36:53 10° NW
COSMOS 2455 3.4 19:29:25 10° WSW 19:35:19 53° NW 19:37:13 39° N
Cosmos 1553 Rocket 3.9 19:29:06 10° N 19:35:34 81° E 19:36:14 72° SE
Cosmos 1833 Rocket 3.0 19:31:52 10° NNW 19:36:25 57° N 19:36:25 57° N
Cosmos 1844 3.8 19:32:50 10° SW 19:38:29 72° WNW 19:39:07 65° NNW
Cosmos 2082 Rocket 3.2 19:34:10 10° NNW 19:37:48 35° N 19:37:48 35° N
Cosmos 2026 Rocket 4.0 19:35:04 10° SSW 19:41:11 79° W 19:47:27 10° N
USA 281 3.8 19:43:33 42° NNE 19:43:33 42° NNE 19:48:23 10° NNW
USA 229 DEB 3.8 19:40:44 10° NW 19:47:59 81° SW 19:49:18 64° SSE
USA 229 3.8 19:40:50 10° NW 19:48:05 81° SW 19:49:21 65° SSE
USA 267 3.9 19:51:35 40° S 19:51:35 40° S 19:56:07 10° SSW
H-2A R/B 4.2 19:54:32 10° SW 19:58:28 23° W 20:02:30 10° NW
Cosmos 1844 Rocket 3.6 19:55:05 10° WSW 20:00:30 45° NW 20:01:07 43° NNW
NOSS 3-1 (A) 4.0 19:56:13 10° NW 20:03:33 78° SW 20:04:27 70° S
ATLAS 2AS CENTAUR R/B 4.0 20:04:58 10° WNW 20:11:58 33° N 20:12:56 32° N
USA 234 3.7 20:27:40 58° W 20:27:40 58° W 20:33:03 10° WNW
ATLAS 5 CENTAUR R/B 4.3 20:27:51 10° WNW 20:29:10 16° NW 20:29:10 16° NW
SJ 16-02 4.2 20:31:32 10° W 20:33:02 15° WNW 20:33:02 15° WNW
CZ-4C R/B 4.3 20:48:31 10° NW 20:51:41 25° NNW 20:51:41 25° NNW
